timestamp,waterbody_station,lease,latitude,longitude,deployment_start_date,deployment_end_date,sensor,depth,mooring,Dissolved Oxygen_percent saturation,Temperature_degrees Celsius,Salinity_practical salinity units
2022-05-15T00:00:00,Annapolis Basin-Lobster Ledge,,44.678248,-65.683392,2021-06-16,2022-06-20,VR2AR-547094,6.0,fixed,,7.8,
2022-05-15T00:01:00,Annapolis Basin-Lobster Ledge,,44.678248,-65.683392,2021-06-16,2022-06-20,aquaMeasure-670356,4.0,fixed,,8.13,
2022-05-15T00:11:00,Annapolis Basin-Lobster Ledge,,44.678248,-65.683392,2021-06-16,2022-06-20,aquaMeasure-670356,4.0,fixed,,8.13,
2022-05-15T00:21:00,Annapolis Basin-Lobster Ledge,,44.678248,-65.683392,2021-06-16,2022-06-20,aquaMeasure-670356,4.0,fixed,,8.11,
2022-05-15T00:31:00,Annapolis Basin-Lobster Ledge,,44.678248,-65.683392,2021-06-16,2022-06-20,aquaMeasure-670356,4.0,fixed,,8.07,
2022-05-15T00:41:00,Annapolis Basin-Lobster Ledge,,44.678248,-65.683392,2021-06-16,2022-06-20,aquaMeasure-670356,4.0,fixed,,8.07,
2022-05-15T00:51:00,Annapolis Basin-Lobster Ledge,,44.678248,-65.683392,2021-06-16,2022-06-20,aquaMeasure-670356,4.0,fixed,,8.07,
2022-05-15T01:00:00,Annapolis Basin-Lobster Ledge,,44.678248,-65.683392,2021-06-16,2022-06-20,VR2AR-547094,6.0,fixed,,7.7,
2022-05-15T01:01:00,Annapolis Basin-Lobster Ledge,,44.678248,-65.683392,2021-06-16,2022-06-20,aquaMeasure-670356,4.0,fixed,,8.03,
2022-05-15T01:11:00,Annapolis Basin-Lobster Ledge,,44.678248,-65.683392,2021-06-16,2022-06-20,aquaMeasure-670356,4.0,fixed,,7.99,
2022-05-15T01:21:00,Annapolis Basin-Lobster Ledge,,44.678248,-65.683392,2021-06-16,2022-06-20,aquaMeasure-670356,4.0,fixed,,8.07,
2022-05-15T01:31:00,Annapolis Basin-Lobster Ledge,,44.678248,-65.683392,2021-06-16,2022-06-20,aquaMeasure-670356,4.0,fixed,,8.09,
2022-05-15T01:41:00,Annapolis Basin-Lobster Ledge,,44.678248,-65.683392,2021-06-16,2022-06-20,aquaMeasure-670356,4.0,fixed,,8.09,
2022-05-15T01:51:00,Annapolis Basin-Lobster Ledge,,44.678248,-65.683392,2021-06-16,2022-06-20,aquaMeasure-670356,4.0,fixed,,8.07,
2022-05-15T02:00:00,Annapolis Basin-Lobster Ledge,,44.678248,-65.683392,2021-06-16,2022-06-20,VR2AR-547094,6.0,fixed,,7.7,
2022-05-15T02:01:00,Annapolis Basin-Lobster Ledge,,44.678248,-65.683392,2021-06-16,2022-06-20,aquaMeasure-670356,4.0,fixed,,8.03,
2022-05-15T02:11:00,Annapolis Basin-Lobster Ledge,,44.678248,-65.683392,2021-06-16,2022-06-20,aquaMeasure-670356,4.0,fixed,,8.07,
2022-05-15T02:21:00,Annapolis Basin-Lobster Ledge,,44.678248,-65.683392,2021-06-16,2022-06-20,aquaMeasure-670356,4.0,fixed,,8.11,
2022-05-15T02:31:00,Annapolis Basin-Lobster Ledge,,44.678248,-65.683392,2021-06-16,2022-06-20,aquaMeasure-670356,4.0,fixed,,8.13,
2022-05-15T02:41:00,Annapolis Basin-Lobster Ledge,,44.678248,-65.683392,2021-06-16,2022-06-20,aquaMeasure-670356,4.0,fixed,,8.19,
2022-05-15T02:51:00,Annapolis Basin-Lobster Ledge,,44.678248,-65.683392,2021-06-16,2022-06-20,aquaMeasure-670356,4.0,fixed,,8.23,
2022-05-15T03:00:00,Annapolis Basin-Lobster Ledge,,44.678248,-65.683392,2021-06-16,2022-06-20,VR2AR-547094,6.0,fixed,,7.8,
2022-05-15T03:01:00,Annapolis Basin-Lobster Ledge,,44.678248,-65.683392,2021-06-16,2022-06-20,aquaMeasure-670356,4.0,fixed,,8.25,
2022-05-15T03:11:00,Annapolis Basin-Lobster Ledge,,44.678248,-65.683392,2021-06-16,2022-06-20,aquaMeasure-670356,4.0,fixed,,8.23,
2022-05-15T03:21:00,Annapolis Basin-Lobster Ledge,,44.678248,-65.683392,2021-06-16,2022-06-20,aquaMeasure-670356,4.0,fixed,,8.25,
2022-05-15T03:31:00,Annapolis Basin-Lobster Ledge,,44.678248,-65.683392,2021-06-16,2022-06-20,aquaMeasure-670356,4.0,fixed,,8.29,
2022-05-15T03:41:00,Annapolis Basin-Lobster Ledge,,44.678248,-65.683392,2021-06-16,2022-06-20,aquaMeasure-670356,4.0,fixed,,8.29,
2022-05-15T03:51:00,Annapolis Basin-Lobster Ledge,,44.678248,-65.683392,2021-06-16,2022-06-20,aquaMeasure-670356,4.0,fixed,,8.33,
2022-05-15T04:00:00,Annapolis Basin-Lobster Ledge,,44.678248,-65.683392,2021-06-16,2022-06-20,VR2AR-547094,6.0,fixed,,7.8,
2022-05-15T04:01:00,Annapolis Basin-Lobster Ledge,,44.678248,-65.683392,2021-06-16,2022-06-20,aquaMeasure-670356,4.0,fixed,,8.35,
2022-05-15T04:11:00,Annapolis Basin-Lobster Ledge,,44.678248,-65.683392,2021-06-16,2022-06-20,aquaMeasure-670356,4.0,fixed,,8.37,
2022-05-15T04:21:00,Annapolis Basin-Lobster Ledge,,44.678248,-65.683392,2021-06-16,2022-06-20,aquaMeasure-670356,4.0,fixed,,8.41,
2022-05-15T04:31:00,Annapolis Basin-Lobster Ledge,,44.678248,-65.683392,2021-06-16,2022-06-20,aquaMeasure-670356,4.0,fixed,,8.45,
2022-05-15T04:41:00,Annapolis Basin-Lobster Ledge,,44.678248,-65.683392,2021-06-16,2022-06-20,aquaMeasure-670356,4.0,fixed,,8.47,
2022-05-15T04:51:00,Annapolis Basin-Lobster Ledge,,44.678248,-65.683392,2021-06-16,2022-06-20,aquaMeasure-670356,4.0,fixed,,8.49,
2022-05-15T05:00:00,Annapolis Basin-Lobster Ledge,,44.678248,-65.683392,2021-06-16,2022-06-20,VR2AR-547094,6.0,fixed,,8.1,
2022-05-15T05:01:00,Annapolis Basin-Lobster Ledge,,44.678248,-65.683392,2021-06-16,2022-06-20,aquaMeasure-670356,4.0,fixed,,8.57,
2022-05-15T05:11:00,Annapolis Basin-Lobster Ledge,,44.678248,-65.683392,2021-06-16,2022-06-20,aquaMeasure-670356,4.0,fixed,,8.55,
2022-05-15T05:21:00,Annapolis Basin-Lobster Ledge,,44.678248,-65.683392,2021-06-16,2022-06-20,aquaMeasure-670356,4.0,fixed,,8.61,
2022-05-15T05:31:00,Annapolis Basin-Lobster Ledge,,44.678248,-65.683392,2021-06-16,2022-06-20,aquaMeasure-670356,4.0,fixed,,8.71,
2022-05-15T05:41:00,Annapolis Basin-Lobster Ledge,,44.678248,-65.683392,2021-06-16,2022-06-20,aquaMeasure-670356,4.0,fixed,,8.84,
2022-05-15T05:51:00,Annapolis Basin-Lobster Ledge,,44.678248,-65.683392,2021-06-16,2022-06-20,aquaMeasure-670356,4.0,fixed,,8.92,
2022-05-15T06:00:00,Annapolis Basin-Lobster Ledge,,44.678248,-65.683392,2021-06-16,2022-06-20,VR2AR-547094,6.0,fixed,,8.5,
2022-05-15T06:01:00,Annapolis Basin-Lobster Ledge,,44.678248,-65.683392,2021-06-16,2022-06-20,aquaMeasure-670356,4.0,fixed,,8.98,
2022-05-15T06:11:00,Annapolis Basin-Lobster Ledge,,44.678248,-65.683392,2021-06-16,2022-06-20,aquaMeasure-670356,4.0,fixed,,9.16,
2022-05-15T06:21:00,Annapolis Basin-Lobster Ledge,,44.678248,-65.683392,2021-06-16,2022-06-20,aquaMeasure-670356,4.0,fixed,,9.36,
2022-05-15T06:31:00,Annapolis Basin-Lobster Ledge,,44.678248,-65.683392,2021-06-16,2022-06-20,aquaMeasure-670356,4.0,fixed,,9.59,
2022-05-15T06:41:00,Annapolis Basin-Lobster Ledge,,44.678248,-65.683392,2021-06-16,2022-06-20,aquaMeasure-670356,4.0,fixed,,9.75,
2022-05-15T06:51:00,Annapolis Basin-Lobster Ledge,,44.678248,-65.683392,2021-06-16,2022-06-20,aquaMeasure-670356,4.0,fixed,,9.93,
2022-05-15T07:00:00,Annapolis Basin-Lobster Ledge,,44.678248,-65.683392,2021-06-16,2022-06-20,VR2AR-547094,6.0,fixed,,9.2,
2022-05-15T07:01:00,Annapolis Basin-Lobster Ledge,,44.678248,-65.683392,2021-06-16,2022-06-20,aquaMeasure-670356,4.0,fixed,,9.95,
2022-05-15T07:11:00,Annapolis Basin-Lobster Ledge,,44.678248,-65.683392,2021-06-16,2022-06-20,aquaMeasure-670356,4.0,fixed,,10.07,
2022-05-15T07:21:00,Annapolis Basin-Lobster Ledge,,44.678248,-65.683392,2021-06-16,2022-06-20,aquaMeasure-670356,4.0,fixed,,10.44,
2022-05-15T07:31:00,Annapolis Basin-Lobster Ledge,,44.678248,-65.683392,2021-06-16,2022-06-20,aquaMeasure-670356,4.0,fixed,,10.46,
2022-05-15T07:41:00,Annapolis Basin-Lobster Ledge,,44.678248,-65.683392,2021-06-16,2022-06-20,aquaMeasure-670356,4.0,fixed,,10.46,
2022-05-15T07:51:00,Annapolis Basin-Lobster Ledge,,44.678248,-65.683392,2021-06-16,2022-06-20,aquaMeasure-670356,4.0,fixed,,10.44,
2022-05-15T08:00:00,Annapolis Basin-Lobster Ledge,,44.678248,-65.683392,2021-06-16,2022-06-20,VR2AR-547094,6.0,fixed,,9.7,
2022-05-15T08:01:00,Annapolis Basin-Lobster Ledge,,44.678248,-65.683392,2021-06-16,2022-06-20,aquaMeasure-670356,4.0,fixed,,10.42,
2022-05-15T08:11:00,Annapolis Basin-Lobster Ledge,,44.678248,-65.683392,2021-06-16,2022-06-20,aquaMeasure-670356,4.0,fixed,,10.5,
2022-05-15T08:21:00,Annapolis Basin-Lobster Ledge,,44.678248,-65.683392,2021-06-16,2022-06-20,aquaMeasure-670356,4.0,fixed,,10.5,
2022-05-15T08:31:00,Annapolis Basin-Lobster Ledge,,44.678248,-65.683392,2021-06-16,2022-06-20,aquaMeasure-670356,4.0,fixed,,10.11,
2022-05-15T08:41:00,Annapolis Basin-Lobster Ledge,,44.678248,-65.683392,2021-06-16,2022-06-20,aquaMeasure-670356,4.0,fixed,,10.11,
2022-05-15T08:51:00,Annapolis Basin-Lobster Ledge,,44.678248,-65.683392,2021-06-16,2022-06-20,aquaMeasure-670356,4.0,fixed,,10.32,
2022-05-15T09:00:00,Annapolis Basin-Lobster Ledge,,44.678248,-65.683392,2021-06-16,2022-06-20,VR2AR-547094,6.0,fixed,,9.4,
2022-05-15T09:01:00,Annapolis Basin-Lobster Ledge,,44.678248,-65.683392,2021-06-16,2022-06-20,aquaMeasure-670356,4.0,fixed,,10.2,
2022-05-15T09:11:00,Annapolis Basin-Lobster Ledge,,44.678248,-65.683392,2021-06-16,2022-06-20,aquaMeasure-670356,4.0,fixed,,10.07,
2022-05-15T09:21:00,Annapolis Basin-Lobster Ledge,,44.678248,-65.683392,2021-06-16,2022-06-20,aquaMeasure-670356,4.0,fixed,,9.87,
2022-05-15T09:31:00,Annapolis Basin-Lobster Ledge,,44.678248,-65.683392,2021-06-16,2022-06-20,aquaMeasure-670356,4.0,fixed,,9.91,
2022-05-15T09:41:00,Annapolis Basin-Lobster Ledge,,44.678248,-65.683392,2021-06-16,2022-06-20,aquaMeasure-670356,4.0,fixed,,9.69,
2022-05-15T09:51:00,Annapolis Basin-Lobster Ledge,,44.678248,-65.683392,2021-06-16,2022-06-20,aquaMeasure-670356,4.0,fixed,,9.71,
2022-05-15T10:00:00,Annapolis Basin-Lobster Ledge,,44.678248,-65.683392,2021-06-16,2022-06-20,VR2AR-547094,6.0,fixed,,9.3,
2022-05-15T10:01:00,Annapolis Basin-Lobster Ledge,,44.678248,-65.683392,2021-06-16,2022-06-20,aquaMeasure-670356,4.0,fixed,,9.69,
2022-05-15T10:11:00,Annapolis Basin-Lobster Ledge,,44.678248,-65.683392,2021-06-16,2022-06-20,aquaMeasure-670356,4.0,fixed,,9.65,
2022-05-15T10:21:00,Annapolis Basin-Lobster Ledge,,44.678248,-65.683392,2021-06-16,2022-06-20,aquaMeasure-670356,4.0,fixed,,9.3,
2022-05-15T10:31:00,Annapolis Basin-Lobster Ledge,,44.678248,-65.683392,2021-06-16,2022-06-20,aquaMeasure-670356,4.0,fixed,,9.06,
2022-05-15T10:41:00,Annapolis Basin-Lobster Ledge,,44.678248,-65.683392,2021-06-16,2022-06-20,aquaMeasure-670356,4.0,fixed,,9.0,
2022-05-15T10:51:00,Annapolis Basin-Lobster Ledge,,44.678248,-65.683392,2021-06-16,2022-06-20,aquaMeasure-670356,4.0,fixed,,8.94,
2022-05-15T11:00:00,Annapolis Basin-Lobster Ledge,,44.678248,-65.683392,2021-06-16,2022-06-20,VR2AR-547094,6.0,fixed,,8.6,
2022-05-15T11:01:00,Annapolis Basin-Lobster Ledge,,44.678248,-65.683392,2021-06-16,2022-06-20,aquaMeasure-670356,4.0,fixed,,8.86,
2022-05-15T11:11:00,Annapolis Basin-Lobster Ledge,,44.678248,-65.683392,2021-06-16,2022-06-20,aquaMeasure-670356,4.0,fixed,,8.78,
2022-05-15T11:21:00,Annapolis Basin-Lobster Ledge,,44.678248,-65.683392,2021-06-16,2022-06-20,aquaMeasure-670356,4.0,fixed,,8.65,
2022-05-15T11:31:00,Annapolis Basin-Lobster Ledge,,44.678248,-65.683392,2021-06-16,2022-06-20,aquaMeasure-670356,4.0,fixed,,8.49,
2022-05-15T11:41:00,Annapolis Basin-Lobster Ledge,,44.678248,-65.683392,2021-06-16,2022-06-20,aquaMeasure-670356,4.0,fixed,,8.41,
2022-05-15T11:51:00,Annapolis Basin-Lobster Ledge,,44.678248,-65.683392,2021-06-16,2022-06-20,aquaMeasure-670356,4.0,fixed,,8.39,
2022-05-15T12:00:00,Annapolis Basin-Lobster Ledge,,44.678248,-65.683392,2021-06-16,2022-06-20,VR2AR-547094,6.0,fixed,,8.0,
2022-05-15T12:01:00,Annapolis Basin-Lobster Ledge,,44.678248,-65.683392,2021-06-16,2022-06-20,aquaMeasure-670356,4.0,fixed,,8.39,
2022-05-15T12:11:00,Annapolis Basin-Lobster Ledge,,44.678248,-65.683392,2021-06-16,2022-06-20,aquaMeasure-670356,4.0,fixed,,8.25,
2022-05-15T12:21:00,Annapolis Basin-Lobster Ledge,,44.678248,-65.683392,2021-06-16,2022-06-20,aquaMeasure-670356,4.0,fixed,,8.19,
2022-05-15T12:31:00,Annapolis Basin-Lobster Ledge,,44.678248,-65.683392,2021-06-16,2022-06-20,aquaMeasure-670356,4.0,fixed,,8.19,
2022-05-15T12:41:00,Annapolis Basin-Lobster Ledge,,44.678248,-65.683392,2021-06-16,2022-06-20,aquaMeasure-670356,4.0,fixed,,8.19,
2022-05-15T12:51:00,Annapolis Basin-Lobster Ledge,,44.678248,-65.683392,2021-06-16,2022-06-20,aquaMeasure-670356,4.0,fixed,,8.19,
2022-05-15T13:00:00,Annapolis Basin-Lobster Ledge,,44.678248,-65.683392,2021-06-16,2022-06-20,VR2AR-547094,6.0,fixed,,7.8,
2022-05-15T13:01:00,Annapolis Basin-Lobster Ledge,,44.678248,-65.683392,2021-06-16,2022-06-20,aquaMeasure-670356,4.0,fixed,,8.07,
2022-05-15T13:11:00,Annapolis Basin-Lobster Ledge,,44.678248,-65.683392,2021-06-16,2022-06-20,aquaMeasure-670356,4.0,fixed,,8.03,
2022-05-15T13:21:00,Annapolis Basin-Lobster Ledge,,44.678248,-65.683392,2021-06-16,2022-06-20,aquaMeasure-670356,4.0,fixed,,7.97,
2022-05-15T13:31:00,Annapolis Basin-Lobster Ledge,,44.678248,-65.683392,2021-06-16,2022-06-20,aquaMeasure-670356,4.0,fixed,,7.97,
2022-05-15T13:41:00,Annapolis Basin-Lobster Ledge,,44.678248,-65.683392,2021-06-16,2022-06-20,aquaMeasure-670356,4.0,fixed,,7.97,
2022-05-15T13:51:00,Annapolis Basin-Lobster Ledge,,44.678248,-65.683392,2021-06-16,2022-06-20,aquaMeasure-670356,4.0,fixed,,7.99,
2022-05-15T14:00:00,Annapolis Basin-Lobster Ledge,,44.678248,-65.683392,2021-06-16,2022-06-20,VR2AR-547094,6.0,fixed,,7.6,
2022-05-15T14:01:00,Annapolis Basin-Lobster Ledge,,44.678248,-65.683392,2021-06-16,2022-06-20,aquaMeasure-670356,4.0,fixed,,7.99,
2022-05-15T14:11:00,Annapolis Basin-Lobster Ledge,,44.678248,-65.683392,2021-06-16,2022-06-20,aquaMeasure-670356,4.0,fixed,,8.03,
2022-05-15T14:21:00,Annapolis Basin-Lobster Ledge,,44.678248,-65.683392,2021-06-16,2022-06-20,aquaMeasure-670356,4.0,fixed,,8.03,
2022-05-15T14:31:00,Annapolis Basin-Lobster Ledge,,44.678248,-65.683392,2021-06-16,2022-06-20,aquaMeasure-670356,4.0,fixed,,8.03,
2022-05-15T14:41:00,Annapolis Basin-Lobster Ledge,,44.678248,-65.683392,2021-06-16,2022-06-20,aquaMeasure-670356,4.0,fixed,,8.07,
2022-05-15T14:51:00,Annapolis Basin-Lobster Ledge,,44.678248,-65.683392,2021-06-16,2022-06-20,aquaMeasure-670356,4.0,fixed,,8.11,
2022-05-15T15:00:00,Annapolis Basin-Lobster Ledge,,44.678248,-65.683392,2021-06-16,2022-06-20,VR2AR-547094,6.0,fixed,,7.7,
2022-05-15T15:01:00,Annapolis Basin-Lobster Ledge,,44.678248,-65.683392,2021-06-16,2022-06-20,aquaMeasure-670356,4.0,fixed,,8.19,
2022-05-15T15:11:00,Annapolis Basin-Lobster Ledge,,44.678248,-65.683392,2021-06-16,2022-06-20,aquaMeasure-670356,4.0,fixed,,8.25,
2022-05-15T15:21:00,Annapolis Basin-Lobster Ledge,,44.678248,-65.683392,2021-06-16,2022-06-20,aquaMeasure-670356,4.0,fixed,,8.29,
2022-05-15T15:31:00,Annapolis Basin-Lobster Ledge,,44.678248,-65.683392,2021-06-16,2022-06-20,aquaMeasure-670356,4.0,fixed,,8.29,
2022-05-15T15:41:00,Annapolis Basin-Lobster Ledge,,44.678248,-65.683392,2021-06-16,2022-06-20,aquaMeasure-670356,4.0,fixed,,8.27,
2022-05-15T15:51:00,Annapolis Basin-Lobster Ledge,,44.678248,-65.683392,2021-06-16,2022-06-20,aquaMeasure-670356,4.0,fixed,,8.25,
2022-05-15T16:00:00,Annapolis Basin-Lobster Ledge,,44.678248,-65.683392,2021-06-16,2022-06-20,VR2AR-547094,6.0,fixed,,7.7,
2022-05-15T16:01:00,Annapolis Basin-Lobster Ledge,,44.678248,-65.683392,2021-06-16,2022-06-20,aquaMeasure-670356,4.0,fixed,,8.33,
2022-05-15T16:11:00,Annapolis Basin-Lobster Ledge,,44.678248,-65.683392,2021-06-16,2022-06-20,aquaMeasure-670356,4.0,fixed,,8.43,
2022-05-15T16:21:00,Annapolis Basin-Lobster Ledge,,44.678248,-65.683392,2021-06-16,2022-06-20,aquaMeasure-670356,4.0,fixed,,8.37,
2022-05-15T16:31:00,Annapolis Basin-Lobster Ledge,,44.678248,-65.683392,2021-06-16,2022-06-20,aquaMeasure-670356,4.0,fixed,,8.55,
2022-05-15T16:41:00,Annapolis Basin-Lobster Ledge,,44.678248,-65.683392,2021-06-16,2022-06-20,aquaMeasure-670356,4.0,fixed,,8.59,
2022-05-15T16:51:00,Annapolis Basin-Lobster Ledge,,44.678248,-65.683392,2021-06-16,2022-06-20,aquaMeasure-670356,4.0,fixed,,8.61,
2022-05-15T17:00:00,Annapolis Basin-Lobster Ledge,,44.678248,-65.683392,2021-06-16,2022-06-20,VR2AR-547094,6.0,fixed,,8.0,
2022-05-15T17:01:00,Annapolis Basin-Lobster Ledge,,44.678248,-65.683392,2021-06-16,2022-06-20,aquaMeasure-670356,4.0,fixed,,8.55,
2022-05-15T17:11:00,Annapolis Basin-Lobster Ledge,,44.678248,-65.683392,2021-06-16,2022-06-20,aquaMeasure-670356,4.0,fixed,,8.57,
2022-05-15T17:21:00,Annapolis Basin-Lobster Ledge,,44.678248,-65.683392,2021-06-16,2022-06-20,aquaMeasure-670356,4.0,fixed,,8.59,
2022-05-15T17:31:00,Annapolis Basin-Lobster Ledge,,44.678248,-65.683392,2021-06-16,2022-06-20,aquaMeasure-670356,4.0,fixed,,8.67,
2022-05-15T17:41:00,Annapolis Basin-Lobster Ledge,,44.678248,-65.683392,2021-06-16,2022-06-20,aquaMeasure-670356,4.0,fixed,,8.78,
2022-05-15T17:51:00,Annapolis Basin-Lobster Ledge,,44.678248,-65.683392,2021-06-16,2022-06-20,aquaMeasure-670356,4.0,fixed,,8.84,
2022-05-15T18:00:00,Annapolis Basin-Lobster Ledge,,44.678248,-65.683392,2021-06-16,2022-06-20,VR2AR-547094,6.0,fixed,,8.5,
2022-05-15T18:01:00,Annapolis Basin-Lobster Ledge,,44.678248,-65.683392,2021-06-16,2022-06-20,aquaMeasure-670356,4.0,fixed,,8.84,
2022-05-15T18:11:00,Annapolis Basin-Lobster Ledge,,44.678248,-65.683392,2021-06-16,2022-06-20,aquaMeasure-670356,4.0,fixed,,8.94,
2022-05-15T18:21:00,Annapolis Basin-Lobster Ledge,,44.678248,-65.683392,2021-06-16,2022-06-20,aquaMeasure-670356,4.0,fixed,,8.98,
2022-05-15T18:31:00,Annapolis Basin-Lobster Ledge,,44.678248,-65.683392,2021-06-16,2022-06-20,aquaMeasure-670356,4.0,fixed,,9.06,
2022-05-15T18:41:00,Annapolis Basin-Lobster Ledge,,44.678248,-65.683392,2021-06-16,2022-06-20,aquaMeasure-670356,4.0,fixed,,9.22,
2022-05-15T18:51:00,Annapolis Basin-Lobster Ledge,,44.678248,-65.683392,2021-06-16,2022-06-20,aquaMeasure-670356,4.0,fixed,,9.46,
2022-05-15T19:00:00,Annapolis Basin-Lobster Ledge,,44.678248,-65.683392,2021-06-16,2022-06-20,VR2AR-547094,6.0,fixed,,8.6,
2022-05-15T19:01:00,Annapolis Basin-Lobster Ledge,,44.678248,-65.683392,2021-06-16,2022-06-20,aquaMeasure-670356,4.0,fixed,,9.79,
2022-05-15T19:11:00,Annapolis Basin-Lobster Ledge,,44.678248,-65.683392,2021-06-16,2022-06-20,aquaMeasure-670356,4.0,fixed,,10.03,
2022-05-15T19:21:00,Annapolis Basin-Lobster Ledge,,44.678248,-65.683392,2021-06-16,2022-06-20,aquaMeasure-670356,4.0,fixed,,10.2,
2022-05-15T19:31:00,Annapolis Basin-Lobster Ledge,,44.678248,-65.683392,2021-06-16,2022-06-20,aquaMeasure-670356,4.0,fixed,,10.34,
2022-05-15T19:41:00,Annapolis Basin-Lobster Ledge,,44.678248,-65.683392,2021-06-16,2022-06-20,aquaMeasure-670356,4.0,fixed,,10.42,
2022-05-15T19:51:00,Annapolis Basin-Lobster Ledge,,44.678248,-65.683392,2021-06-16,2022-06-20,aquaMeasure-670356,4.0,fixed,,10.28,
2022-05-15T20:00:00,Annapolis Basin-Lobster Ledge,,44.678248,-65.683392,2021-06-16,2022-06-20,VR2AR-547094,6.0,fixed,,9.7,
2022-05-15T20:01:00,Annapolis Basin-Lobster Ledge,,44.678248,-65.683392,2021-06-16,2022-06-20,aquaMeasure-670356,4.0,fixed,,10.28,
2022-05-15T20:11:00,Annapolis Basin-Lobster Ledge,,44.678248,-65.683392,2021-06-16,2022-06-20,aquaMeasure-670356,4.0,fixed,,10.01,
2022-05-15T20:21:00,Annapolis Basin-Lobster Ledge,,44.678248,-65.683392,2021-06-16,2022-06-20,aquaMeasure-670356,4.0,fixed,,9.95,
2022-05-15T20:31:00,Annapolis Basin-Lobster Ledge,,44.678248,-65.683392,2021-06-16,2022-06-20,aquaMeasure-670356,4.0,fixed,,9.89,
2022-05-15T20:41:00,Annapolis Basin-Lobster Ledge,,44.678248,-65.683392,2021-06-16,2022-06-20,aquaMeasure-670356,4.0,fixed,,9.91,
2022-05-15T20:51:00,Annapolis Basin-Lobster Ledge,,44.678248,-65.683392,2021-06-16,2022-06-20,aquaMeasure-670356,4.0,fixed,,10.2,
2022-05-15T21:00:00,Annapolis Basin-Lobster Ledge,,44.678248,-65.683392,2021-06-16,2022-06-20,VR2AR-547094,6.0,fixed,,9.2,
2022-05-15T21:01:00,Annapolis Basin-Lobster Ledge,,44.678248,-65.683392,2021-06-16,2022-06-20,aquaMeasure-670356,4.0,fixed,,10.13,
2022-05-15T21:11:00,Annapolis Basin-Lobster Ledge,,44.678248,-65.683392,2021-06-16,2022-06-20,aquaMeasure-670356,4.0,fixed,,9.99,
2022-05-15T21:21:00,Annapolis Basin-Lobster Ledge,,44.678248,-65.683392,2021-06-16,2022-06-20,aquaMeasure-670356,4.0,fixed,,9.97,
2022-05-15T21:31:00,Annapolis Basin-Lobster Ledge,,44.678248,-65.683392,2021-06-16,2022-06-20,aquaMeasure-670356,4.0,fixed,,10.03,
2022-05-15T21:41:00,Annapolis Basin-Lobster Ledge,,44.678248,-65.683392,2021-06-16,2022-06-20,aquaMeasure-670356,4.0,fixed,,10.09,
2022-05-15T21:51:00,Annapolis Basin-Lobster Ledge,,44.678248,-65.683392,2021-06-16,2022-06-20,aquaMeasure-670356,4.0,fixed,,9.83,
2022-05-15T22:00:00,Annapolis Basin-Lobster Ledge,,44.678248,-65.683392,2021-06-16,2022-06-20,VR2AR-547094,6.0,fixed,,9.3,
2022-05-15T22:01:00,Annapolis Basin-Lobster Ledge,,44.678248,-65.683392,2021-06-16,2022-06-20,aquaMeasure-670356,4.0,fixed,,9.77,
2022-05-15T22:11:00,Annapolis Basin-Lobster Ledge,,44.678248,-65.683392,2021-06-16,2022-06-20,aquaMeasure-670356,4.0,fixed,,9.75,
2022-05-15T22:21:00,Annapolis Basin-Lobster Ledge,,44.678248,-65.683392,2021-06-16,2022-06-20,aquaMeasure-670356,4.0,fixed,,9.65,
2022-05-15T22:31:00,Annapolis Basin-Lobster Ledge,,44.678248,-65.683392,2021-06-16,2022-06-20,aquaMeasure-670356,4.0,fixed,,9.46,
2022-05-15T22:41:00,Annapolis Basin-Lobster Ledge,,44.678248,-65.683392,2021-06-16,2022-06-20,aquaMeasure-670356,4.0,fixed,,9.26,
2022-05-15T22:51:00,Annapolis Basin-Lobster Ledge,,44.678248,-65.683392,2021-06-16,2022-06-20,aquaMeasure-670356,4.0,fixed,,9.12,
2022-05-15T23:00:00,Annapolis Basin-Lobster Ledge,,44.678248,-65.683392,2021-06-16,2022-06-20,VR2AR-547094,6.0,fixed,,8.8,
2022-05-15T23:01:00,Annapolis Basin-Lobster Ledge,,44.678248,-65.683392,2021-06-16,2022-06-20,aquaMeasure-670356,4.0,fixed,,9.04,
2022-05-15T23:11:00,Annapolis Basin-Lobster Ledge,,44.678248,-65.683392,2021-06-16,2022-06-20,aquaMeasure-670356,4.0,fixed,,8.88,
2022-05-15T23:21:00,Annapolis Basin-Lobster Ledge,,44.678248,-65.683392,2021-06-16,2022-06-20,aquaMeasure-670356,4.0,fixed,,8.67,
2022-05-15T23:31:00,Annapolis Basin-Lobster Ledge,,44.678248,-65.683392,2021-06-16,2022-06-20,aquaMeasure-670356,4.0,fixed,,8.61,
2022-05-15T23:41:00,Annapolis Basin-Lobster Ledge,,44.678248,-65.683392,2021-06-16,2022-06-20,aquaMeasure-670356,4.0,fixed,,8.57,
2022-05-15T23:51:00,Annapolis Basin-Lobster Ledge,,44.678248,-65.683392,2021-06-16,2022-06-20,aquaMeasure-670356,4.0,fixed,,8.51,
